584  
ASUS44 KHUN 241110  
RWRHUN  
 
WEATHER ROUNDUP FOR THE TENNESSEE VALLEY  
NATIONAL WEATHER SERVICE HUNTSVILLE AL  
600 AM CDT FRI MAY 24 2019  
 
ALZ001>004-241200-  
NORTHWEST ALABAMA  
 
CITY SKY/WX TMP DP RH WIND PRES REMARKS
 
SHOALS AIRPORT FAIR 69 66 90 CALM 30.14R  

 
 
ALZ005>007-016-241200-  
NORTH CENTRAL ALABAMA  
 
CITY SKY/WX TMP DP RH WIND PRES REMARKS
 
CULLMAN AG STN N/A 63 N/A N/A CALM N/A  
DECATUR AP FAIR 67 66 97 CALM 30.15R FOG  
HUNTSVILLE AP FAIR 70 68 93 E3 30.15R  
HUN NWS/UAH N/A 71 65 82 CALM N/A  
MERIDIANVILLE N/A 66 65 97 CALM 30.16R  
VINEMONT AP FAIR 64 63 97 CALM 30.18R  

 
 
ALZ008>010-241200-  
NORTHEAST ALABAMA  
 
CITY SKY/WX TMP DP RH WIND PRES REMARKS
 
ALBERTVILLE FAIR 70 64 83 CALM 30.17R  
FORT PAYNE FAIR 65 65 99 CALM 30.16R FOG  
SCOTTSBORO AP FAIR 66 66 100 CALM 30.17R  

 
 
TNZ076-096-097-241200-  
SOUTHEASTERN MIDDLE TENNESSEE  
 
CITY SKY/WX TMP DP RH WIND PRES REMARKS
 
FAYETTEVILLE CLEAR 68 64 88 CALM 30.16R  
TULLAHOMA CLEAR 64 63 94 CALM 30.16R  
WINCHESTER CLEAR 64 63 94 CALM 30.17R  

 
   
..SURROUNDING SITES
 
 
 
CITY SKY/WX TMP DP RH WIND PRES REMARKS
 
ATLANTA FAIR 71 64 78 SW6 30.18R  
ANNISTON FAIR 69 67 93 CALM 30.16R  
BIRMINGHAM FAIR 71 66 84 CALM 30.17R  
CHATTANOOGA FAIR 71 68 90 CALM 30.17R  
CORINTH FAIR 66 66 100 CALM 30.12R  
DALTON MOCLDY 66 66 100 CALM 30.18R  
GADSDEN FAIR 65 32 29 CALM 30.16R FOG  
GOLDEN TRNGL MOCLDY 71 70 96 S3 30.13R  
HALEYVILLE FAIR 65 64 97 CALM 30.18R  
JACKSON TN FAIR 66 64 93 CALM 30.12R  
MEMPHIS FAIR 72 67 84 S9 30.10R  
NASHVILLE FAIR 68 62 81 CALM 30.15R  
OXFORD MS FAIR 70 66 88 S5 30.13R  
ROME FAIR 69 65 86 N3 30.15R  
SAVANNAH CLEAR 66 64 94 CALM 30.12R  
SELMER CLEAR 66 64 94 CALM 30.12R  
TUPELO MOCLDY 70 67 90 N3 30.12R  
TUSCALOOSA FAIR 72 68 87 CALM 30.13R  

 
 
 
 
CLICK HERE TO GO TO PREVIOUS BULLETINS.

The Nexlab AL Page
The Nexlab TN Page Main Text Page